| time (UTC) | temp F | wind direction | speed MPH | gust MPH | rain 1hr in | rain 24hr in | rain mn in | humidity % | barometer mb |
| 20260905043107 | 57 | 147 | 0.0 | 3.0 | 0.08 | 0.20 | 0.20 | 97 | |
| 20260905040057 | 57 | 152 | 0.0 | 1.0 | 0.15 | 0.17 | 0.17 | 96 | |
| 20260905033108 | 57 | 173 | 1.0 | 4.0 | 0.10 | 0.12 | 0.12 | 95 | |
| 20260905030039 | 57 | 159 | 1.0 | 3.0 | 0.02 | 0.02 | 0.02 | 92 | |
| 20260905023109 | 60 | 258 | 3.0 | 9.0 | 0.02 | 0.02 | 0.02 | 81 | |
| 20260905020039 | 63 | 287 | 2.0 | 10.0 | 0.00 | 0.00 | 0.00 | 69 | |
| 20260905013110 | 65 | 253 | 3.0 | 13.0 | 0.00 | 0.00 | 0.00 | 62 | |
| 20260905010040 | 66 | 274 | 2.0 | 8.0 | 0.00 | 0.00 | 0.00 | 61 | |
| 20260905003111 | 66 | 186 | 1.0 | 8.0 | 0.00 | 0.00 | 0.00 | 66 | |
| 20260905000041 | 68 | 282 | 3.0 | 11.0 | 0.00 | 0.00 | 0.00 | 67 | |
| 20260904233111 | 72 | 258 | 3.0 | 14.0 | 0.00 | 0.00 | 0.00 | 65 | |
| 20260904230041 | 72 | 171 | 1.0 | 3.0 | 0.00 | 0.00 | 0.00 | 67 | |
| 20260904223112 | 70 | 0.0 | 0.0 | 0.00 | 0.00 | 0.00 | 70 | ||
| 20260904220042 | 71 | 0.0 | 0.0 | 0.00 | 0.00 | 0.00 | 69 | ||
| 20260904213112 | 71 | 143 | 0.0 | 2.0 | 0.00 | 0.00 | 0.00 | 67 | |
| 20260904210043 | 73 | 169 | 0.0 | 2.0 | 0.00 | 0.00 | 0.00 | 65 | |
| 20260904203113 | 74 | 163 | 0.0 | 4.0 | 0.00 | 0.00 | 0.00 | 62 | |
| 20260904200043 | 72 | 0.0 | 0.0 | 0.00 | 0.00 | 0.00 | 65 | ||
| 20260904193114 | 75 | 0.0 | 0.0 | 0.00 | 0.00 | 0.00 | 61 | ||
| 20260904190043 | 74 | 143 | 0.0 | 1.0 | 0.00 | 0.00 | 0.00 | 61 | |
| 20260904183114 | 77 | 201 | 0.0 | 7.0 | 0.00 | 0.00 | 0.00 | 56 | |
| 20260904180044 | 80 | 211 | 2.0 | 10.0 | 0.00 | 0.00 | 0.00 | 50 | |
| 20260904173115 | 82 | 139 | 0.0 | 3.0 | 0.00 | 0.00 | 0.00 | 48 | |
| 20260904170105 | 84 | 193 | 2.0 | 9.0 | 0.00 | 0.00 | 0.00 | 44 | |
| 20260904163135 | 85 | 210 | 2.0 | 11.0 | 0.00 | 0.00 | 0.00 | 42 | |
| 20260904160045 | 85 | 287 | 3.0 | 10.0 | 0.00 | 0.00 | 0.00 | 42 | |
| 20260904153116 | 86 | 220 | 2.0 | 10.0 | 0.00 | 0.00 | 0.00 | 42 | |
| 20260904150107 | 86 | 246 | 2.0 | 14.0 | 0.00 | 0.00 | 0.00 | 44 | |
| 20260904143037 | 86 | 192 | 2.0 | 9.0 | 0.00 | 0.00 | 0.00 | 46 | |
| 20260904140047 | 85 | 226 | 3.0 | 9.0 | 0.00 | 0.00 | 0.00 | 47 | |
| 20260904133036 | 84 | 188 | 3.0 | 10.0 | 0.00 | 0.00 | 0.00 | 49 | |
| 20260904130048 | 83 | 199 | 2.0 | 7.0 | 0.00 | 0.00 | 0.00 | 50 | |
| 20260904123018 | 82 | 186 | 2.0 | 8.0 | 0.00 | 0.00 | 0.00 | 52 | |
| 20260904120054 | 81 | 206 | 3.0 | 10.0 | 0.00 | 0.00 | 0.00 | 54 | |
| 20260904113019 | 80 | 194 | 3.0 | 10.0 | 0.00 | 0.00 | 0.00 | 54 | |
| 20260904110130 | 80 | 182 | 3.0 | 11.0 | 0.00 | 0.00 | 0.00 | 55 | |
| 20260904103041 | 79 | 150 | 2.0 | 9.0 | 0.00 | 0.00 | 0.00 | 57 | |
| 20260904100112 | 78 | 189 | 2.0 | 8.0 | 0.00 | 0.00 | 0.00 | 57 | |
| 20260904093041 | 77 | 240 | 2.0 | 11.0 | 0.00 | 0.00 | 0.00 | 60 | |
| 20260904090053 | 76 | 234 | 3.0 | 14.0 | 0.00 | 0.00 | 0.00 | 61 | |
| 20260904083022 | 76 | 176 | 2.0 | 7.0 | 0.00 | 0.00 | 0.00 | 62 | |
| 20260904080053 | 74 | 155 | 1.0 | 8.0 | 0.00 | 0.00 | 0.00 | 63 | |
| 20260904073023 | 72 | 152 | 2.0 | 7.0 | 0.00 | 0.00 | 0.00 | 65 | |
| 20260904070054 | 72 | 147 | 1.0 | 6.0 | 0.00 | 0.00 | 0.00 | 66 | |
| 20260904063024 | 70 | 160 | 1.0 | 6.0 | 0.00 | 0.00 | 0.00 | 68 | |
| 20260904060055 | 69 | 154 | 1.0 | 7.0 | 0.00 | 0.00 | 0.00 | 70 | |
| 20260904053045 | 68 | 146 | 0.0 | 3.0 | 0.00 | 0.00 | 0.00 | 72 | |
| 20260904050116 | 68 | 159 | 1.0 | 3.0 | 0.00 | 0.00 | 0.00 | 70 |